Weather Service Report


823 
ASUS44 KLUB 222010
RWRTX 
WEST TEXAS WEATHER ROUNDUP
NATIONAL WEATHER SERVICE LUBBOCK TX
200 PM CST MON DEC 22 2014

NOTE: "FAIR" INDICATES FEW OR NO CLOUDS BELOW 12,000 FEET WITH NO
SIGNIFICANT WEATHER AND/OR OBSTRUCTIONS TO VISIBILITY.

TXZ004-006>008-010-012-014-016-OKZ002-222100-
TEXAS PANHANDLE/OKLAHOMA PANHANDLE
  
CITY           SKY/WX    TMP DP  RH WIND       PRES   REMARKS
AMARILLO       CLOUDY    50  21  32 N14G23    29.71F                  
BORGER         CLOUDY    51  25  36 N17G23    29.69F                  
CANADIAN       CLOUDY    55  29  37 N22G28    29.65S                  
DALHART        CLOUDY    46  23  40 N12       29.73S                  
DUMAS          CLOUDY    46  23  41 N7G16     29.68F                  
GUYMON         MOSUNNY   48  27  44 N14       29.67R                  
HEREFORD       CLOUDY    51  31  46 CALM      29.71F                  
PAMPA          CLOUDY    51  26  37 N23       29.68S                  
PERRYTON       MOSUNNY   48  28  47 NW20G28   29.66R                  
$$

TXZ026-029-035-045-048-222100-
SOUTHERN PANHANDLE/SOUTH PLAINS/ROLLING PLAINS
  
CITY           SKY/WX    TMP DP  RH WIND       PRES   REMARKS
CHILDRESS      CLOUDY    57  28  33 N10       29.68F                  
SEMINOLE       CLOUDY    58  34  39 NE7       29.73F                  
LUBBOCK        PTSUNNY   57  31  37 N7        29.70F                  
PLAINVIEW      CLOUDY    51  28  41 N10       29.70F                  
SNYDER         CLOUDY    58  36  42 NW8       29.71R                  
$$

TXZ052-054-060>062-072-078-127-140-154-169-222100-
PERMIAN BASIN/CONCHO VALLEY/BIG COUNTRY/EDWARDS PLATEAU  
  
CITY           SKY/WX    TMP DP  RH WIND       PRES   REMARKS
ABILENE        PTSUNNY   65  36  34 NW8       29.67F                  
BIG SPRING     CLOUDY    61  33  34 NW8       29.73S                  
BRADY          SUNNY     72  37  28 NW23      29.63F                  
BROWNWOOD      MOSUNNY   64  39  39 NW14G21   29.66S                  
JUNCTION       CLOUDY    69  40  34 SW9       29.65F                  
MIDLAND        CLOUDY    64  34  32 N14       29.71F                  
ODESSA         CLOUDY    65  32  29 N14       29.71F                  
SAN ANGELO     MOSUNNY   73  33  23 NW20      29.66F                  
SONORA         PTSUNNY   72  36  26 CALM      29.71F                  
SWEETWATER     CLOUDY    61  35  36 NW9       29.72S                  
WINK           CLOUDY    72  28  19 W15G21    29.69F                  
$$

TXZ055-058-074-075-080-082-222100-
FAR WEST/SOUTHWEST MOUNTAINS/TRANS PECOS
  
CITY           SKY/WX    TMP DP  RH WIND       PRES   REMARKS
ALPINE         PTSUNNY   66  30  26 W20G25    29.85F                  
DRYDEN           N/A     79  30  16 SW22G30   29.66F                  
EL PASO        MOSUNNY   65  33  30 W10G23    29.81F                  
FORT STOCKTON  PTSUNNY   74  30  19 NW21      29.72F                  
MARFA          PTSUNNY   63  30  29 W23G32    29.85F                  
PECOS          CLOUDY    69  33  26 W23G30    29.71F                  
PRESIDIO       FAIR      72  31  22 W9        29.79F                  
$$

TXZ014-016-019-021>030-083-222100
TEXAS TECH WEST TEXAS MESONET/TEXAS PANHANDLE/NORTHERN SOUTH PLAINS
  
CITY           SKY/WX    TMP DP  RH WIND       PRES   REMARKS
ABERNATHY 5ENE   N/A     53  29  40 N6        29.72F                  
AMARILLO 9NNE    N/A     50  23  35 N12       29.70F                  
AMARILLO 7SSE    N/A     50  24  36 N8        29.71F                  
AMHERST 1NE      N/A     51  30  45 N3        29.71F                  
BOOTLEG 11WNW    N/A     45  25  44 NE6       29.73F                  
CANADIAN 6E      N/A     52  28  39 NW22      29.63R                  
CAPROCK CYN SP   N/A     53  26  36 NW8       29.70F                  
CHILDRESS 2NNE   N/A     56  28  34 N14       29.67F                  
CLARENDON 2WSW   N/A     52  27  38 NW9       29.70S                  
CLAUDE 12SW      N/A     50  27  41 NW9       29.70F                  
DIMMITT 2NE      N/A     47  29  48 N8        29.72F                  
FLOYDADA 2NNE    N/A     52  27  38 N9        29.70F                  
FRIONA 2NE       N/A     47  28  47 N5        29.73F                  
GOODLETT 3W      N/A     58  29  33 NW14      29.66F                  
HART 3N          N/A     47  29  47 NE8       29.72F                  
HEREFORD 2NW     N/A     49  26  40 CALM      29.71F                  
MCLEAN 1E        N/A     52  26  36 NW18      29.65F                  
MEMPHIS 1NE      N/A     55  27  33 NW8       29.69F                  
MULESHOE 2SSW    N/A     50  29  45 NE5       29.72F                  
OLTON 6S         N/A     51  28  41 N8        29.71F                  
PALO DURO SP     N/A     51  26  37 N7        29.72F                  
PAMPA 2E         N/A     49  27  42 NW18      29.67S                  
PLAINVIEW 1S     N/A     50  29  44 N12       29.70F                  
SILVERTON 7ESE   N/A     51  27  39 N14       29.70F                  
TULIA 2ENE       N/A     48  29  47 N9        29.71F                  
TURKEY 2WSW      N/A     55  28  35 NW13      29.68F                  
UMBARGER 3NNE    N/A     50  23  35 N14       29.71F                  
$$

TXZ033>036-039>041-045>048-222100
TEXAS TECH WEST TEXAS MESONET/SOUTH PLAINS  
  
CITY           SKY/WX    TMP DP  RH WIND       PRES   REMARKS
AIKEN 3WSW       N/A     51  29  43 N13       29.72F                  
ANTON 6SSW       N/A     54  33  44 N9        29.72F                  
BROWNFIELD 2S    N/A     52  30  42 N5        29.72F                  
DENVR CTY 7WNW   N/A     53  30  41 N7        29.73F                  
GAIL 2ESE        N/A     59  33  37 N10       29.70F                  
LAMESA 2SE       N/A     58  33  38 N8        29.73F                  
LEVELLAND 4S     N/A     57  29  34 N7        29.71F                  
LUBBOCK 3WNW     N/A     57  30  36 N3        29.71F                  
MORTON 1ENE      N/A     52  29  41 N7        29.71F                  
ODONNELL 1N      N/A     55  30  39 NW7       29.72F                  
PLAINS 3N        N/A     53  28  38 NE2       29.72F                  
RALLS 1SE        N/A     56  29  35 N9        29.71F                  
REESE CENTER     N/A     55  30  37 N7        29.72F                  
SEAGRAVES 1SW    N/A     54  33  44 N5        29.73F                  
SEMINOLE 2NNE    N/A     57  33  41 N8        29.73F                  
SLATON 2NE       N/A     56  30  35 N9        29.71F                  
SNYDER 3E        N/A     59  36  41 NW8       29.69S                  
SUNDOWN 8SW      N/A     55  29  36 N7        29.71F                  
TAHOKA 3NNE      N/A     55  31  39 N7        29.71F                  
WOLFFORTH 6SSW   N/A     55  32  41 N5        29.72F                  
$$

TXZ031-032-036>038-042>044-222100-
TEXAS TECH WEST TEXAS MESONET/ROLLING PLAINS 
  
CITY           SKY/WX    TMP DP  RH WIND       PRES   REMARKS
ASPERMONT 3NE    N/A     60  35  39 N9        29.68S                  
FLUVANNA 3WNW    N/A     56  33  40 N9        29.69F                  
GRAHAM 5SSW      N/A     55  32  41 NW10      29.71F                  
GUTHRIE 10WSW    N/A     61  33  35 N9        29.67F                  
HASKELL 1NW      N/A     60  34  37 NW14      29.66S                  
JAYTON 1SSE      N/A     59  34  38 NW10      29.68F                  
KNOX CITY 3NW    N/A     61  32  33 N14       29.66F                  
LK A HENRY 1NW   N/A     58  34  40 NW8       29.69F                  
NORTHFIELD 1S    N/A     56  29  35 NW12      29.69S                  
ODELL 4ENE       N/A     58  33  37 NW12      29.66S                  
PADUCAH 10SW     N/A     60  31  33 N12       29.68S                  
POST 1NE         N/A     57  33  40 NW7       29.71F                  
SEYMOUR 3NW      N/A     59  35  40 NW16      29.64F                  
SPUR 1W          N/A     59  30  32 N9        29.68F                  
WHITE RVR 6NE    N/A     60  31  34 N3        29.69F                  
$$

TXZ052-054-060>062-072-078-127-140-154-169-222100-
TEXAS TECH WEST TEXAS MESONET/PERMIAN BASIN/
CONCHO VALLEY/BIG COUNTRY/EDWARDS PLATEAU
  
CITY           SKY/WX    TMP DP  RH WIND       PRES   REMARKS
COYANOSA 2N      N/A     72  32  22 W17       29.71F                  
JUNCTION 1SSW    N/A     69  41  35 SW3       29.66F                  
MERTZON 3NNE     N/A     72  35  26 N10       29.68F                  
SAN ANGELO 7NW   N/A     69  34  27 NW14      29.67F                  
STRLNG CT 4WSW   N/A     64  34  33 NW12      29.69F                  
ST LAWRNCE 5SW   N/A     66  31  26 NW18      29.69F                  
SWEETWATR 11SW   N/A     61  36  39 NW7       29.70F                  
WALL 1E          N/A     71  35  26 NW12      29.67F                  
$$

TXZ055-058-074-075-080-082-222100-
TEXAS TECH WEST TEXAS MESONET/FAR WEST/SOUTHWEST MOUNTAINS/TRANS PECOS
  
CITY           SKY/WX    TMP DP  RH WIND       PRES   REMARKS
PRSMN GAP BBNP   N/A     75  32  20 SW13      29.74F                  
$$

Return to Home page


Western Regional Climate Center, wrcc@dri.edu